EW6133 Weather Reports


Display with metric or nautical units.
time (UTC)temp
F
wind
direction
speed
MPH
gust
MPH
rain 1hr
in
rain 24hr
in
rain mn
in
humidity
%
barometer
mb
20260508014531 45 355 0.0 0.0 0.00 0.00 0.00 91 1015.5
20260508014033 45 355 0.0 0.0 0.00 0.00 0.00 91 1015.6
20260508013532 45 355 0.0 0.0 0.00 0.00 0.00 91 1015.6
20260508013032 45 355 0.0 0.0 0.00 0.00 0.00 91 1015.6
20260508012534 45 355 0.0 0.0 0.00 0.00 0.00 90 1015.6
20260508012032 46 355 0.0 0.0 0.00 0.00 0.00 90 1015.6
20260508011531 46 355 0.0 0.0 0.00 0.00 0.00 90 1015.6
20260508011032 46 355 0.0 0.0 0.00 0.00 0.00 90 1015.5
20260508010825 47 355 0.0 0.0 0.00 0.00 0.00 90 1015.5
20260508010820 46 355 0.0 0.0 0.00 0.00 0.00 90 1015.5
20260508005530 47 355 0.0 0.0 0.00 0.00 0.00 90 1015.4
20260508005049 47 355 0.0 0.0 0.00 0.00 0.00 90 1015.4
20260508005042 47 355 0.0 0.0 0.00 0.00 0.00 90 1015.4
20260508004311 47 355 0.0 1.0 0.00 0.00 0.00 90 1015.4
20260508003525 47 355 0.0 1.0 0.00 0.00 0.00 90 1015.4
20260508003018 47 355 0.0 1.0 0.00 0.00 0.00 90 1015.4
20260508002512 47 355 0.0 2.0 0.00 0.00 0.00 90 1015.4
20260508002005 47 355 0.0 2.0 0.00 0.00 0.00 90 1015.4
20260508001506 48 19 0.0 1.0 0.00 0.00 0.00 89 1015.4
20260508001006 48 19 0.0 1.0 0.00 0.00 0.00 89 1015.5
20260508000506 48 19 0.0 1.0 0.00 0.00 0.00 89 1015.7
20260508000005 48 19 0.0 2.0 0.00 0.00 0.00 89 1015.7
20260507235503 48 19 0.0 2.0 0.00 0.00 0.00 89 1015.7
20260507235004 48 351 0.0 2.0 0.00 0.00 0.00 88 1015.7
20260507234503 48 351 0.0 2.0 0.00 0.00 0.00 88 1015.7
20260507234003 48 351 0.0 1.0 0.00 0.00 0.00 89 1015.8
20260507233504 49 351 0.0 1.0 0.00 0.00 0.00 88 1015.8
20260507233003 49 69 0.0 1.0 0.00 0.00 0.00 88 1015.8
20260507232504 49 69 0.0 1.0 0.00 0.00 0.00 88 1015.8
20260507232005 49 69 0.0 1.0 0.00 0.00 0.00 88 1015.8
20260507231503 49 69 0.0 0.0 0.00 0.00 0.00 88 1015.9
20260507231003 49 69 0.0 0.0 0.00 0.00 0.00 87 1015.9
20260507230502 49 69 0.0 0.0 0.00 0.00 0.00 87 1015.9
20260507230239 49 69 0.0 0.0 0.00 0.00 0.00 87 1015.9
20260507225506 49 69 0.0 0.0 0.00 0.00 0.00 87 1015.9
20260507225001 49 69 0.0 0.0 0.00 0.00 0.00 87 1016.0
20260507224455 49 69 0.0 0.0 0.00 0.00 0.00 86 1016.0
20260507223949 49 69 0.0 0.0 0.00 0.00 0.00 86 1016.0
20260507223446 50 69 0.0 0.0 0.00 0.00 0.00 86 1016.0
20260507222947 50 69 0.0 0.0 0.00 0.00 0.00 86 1016.1
20260507222446 50 69 0.0 0.0 0.00 0.00 0.00 86 1016.1
20260507221949 50 69 0.0 0.0 0.00 0.00 0.00 86 1016.0
20260507221444 50 69 0.0 1.0 0.00 0.00 0.00 86 1016.1
20260507221223 50 69 0.0 1.0 0.00 0.00 0.00 86 1016.1
20260507220444 50 71 0.0 0.0 0.00 0.00 0.00 85 1016.2
20260507215945 50 71 0.0 1.0 0.00 0.00 0.00 85 1016.2
20260507215445 50 71 0.0 1.0 0.00 0.00 0.00 85 1016.2
20260507214946 50 71 0.0 0.0 0.00 0.00 0.00 85 1016.2
20260507214445 50 71 0.0 1.0 0.00 0.00 0.00 85 1016.1
20260507213944 50 71 0.0 1.0 0.00 0.00 0.00 85 1016.1
20260507213447 50 128 0.0 1.0 0.00 0.00 0.00 84 1016.1
20260507212942 50 128 0.0 1.0 0.00 0.00 0.00 84 1016.1
20260507212442 50 128 0.0 1.0 0.00 0.00 0.00 84 1016.1
20260507211940 50 42 0.0 1.0 0.00 0.00 0.00 84 1016.0
20260507211440 50 42 0.0 1.0 0.00 0.00 0.00 84 1016.0
20260507210941 51 42 0.0 1.0 0.00 0.00 0.00 83 1016.0
20260507210439 51 42 0.0 1.0 0.00 0.00 0.00 83 1015.9
20260507205944 51 42 0.0 1.0 0.00 0.00 0.00 83 1015.8
20260507205440 51 42 0.0 1.0 0.00 0.00 0.00 82 1015.9
20260507204938 51 42 0.0 1.0 0.00 0.00 0.00 82 1015.9
20260507204436 51 38 0.0 2.0 0.00 0.00 0.00 82 1015.8
20260507203937 51 38 0.0 2.0 0.00 0.00 0.00 82 1015.8
20260507203719 51 38 0.0 1.0 0.00 0.00 0.00 82 1015.8
20260507202937 51 38 0.0 2.0 0.00 0.00 0.00 81 1015.8
20260507202438 51 38 0.0 2.0 0.00 0.00 0.00 81 1015.7
20260507201936 51 38 0.0 1.0 0.00 0.00 0.00 81 1015.6
20260507201712 51 43 0.0 3.0 0.00 0.00 0.00 80 1015.5
20260507200934 51 43 0.0 3.0 0.00 0.00 0.00 80 1015.4
20260507200434 52 21 0.0 2.0 0.00 0.00 0.00 79 1015.3
20260507200212 52 88 0.0 3.0 0.00 0.00 0.00 79 1015.2
20260507195433 52 59 0.0 3.0 0.00 0.00 0.00 78 1015.2
20260507194930 52 56 0.0 2.0 0.00 0.00 0.00 77 1015.1
20260507194431 52 61 0.0 2.0 0.00 0.00 0.00 77 1015.1
20260507193931 53 70 0.0 2.0 0.00 0.00 0.00 76 1015.0
20260507193428 53 70 0.0 2.0 0.00 0.00 0.00 76 1015.0
20260507192928 53 184 0.0 3.0 0.00 0.00 0.00 75 1015.0
20260507192429 53 143 1.0 6.0 0.00 0.00 0.00 75 1015.1
20260507191928 53 101 1.0 6.0 0.00 0.00 0.00 74 1015.1
20260507191426 53 139 1.0 3.0 0.00 0.00 0.00 74 1015.0
20260507190927 54 217 1.0 4.0 0.00 0.00 0.00 73 1015.0
20260507190427 54 60 1.0 6.0 0.00 0.00 0.00 72 1015.1
20260507185923 54 108 1.0 8.0 0.00 0.00 0.00 72 1015.0
20260507185704 54 96 1.0 8.0 0.00 0.00 0.00 71 1015.0
20260507184922 54 232 1.0 8.0 0.00 0.00 0.00 71 1015.0
20260507184421 55 213 1.0 8.0 0.00 0.00 0.00 71 1015.0
20260507183922 55 186 1.0 5.0 0.00 0.00 0.00 70 1015.0
20260507183421 55 108 1.0 5.0 0.00 0.00 0.00 70 1015.0
20260507182922 55 126 1.0 9.0 0.00 0.00 0.00 70 1014.8
20260507182424 55 201 1.0 9.0 0.00 0.00 0.00 69 1014.8
20260507181923 55 69 1.0 6.0 0.00 0.00 0.00 69 1014.8
20260507181423 55 124 1.0 6.0 0.00 0.00 0.00 68 1014.7
20260507180922 55 102 1.0 6.0 0.00 0.00 0.00 68 1014.7
20260507180421 55 190 1.0 6.0 0.00 0.00 0.00 68 1014.7
20260507175921 55 203 1.0 6.0 0.00 0.00 0.00 67 1014.6
20260507175421 55 166 1.0 4.0 0.00 0.00 0.00 67 1014.6
20260507174920 55 169 1.0 3.0 0.00 0.00 0.00 67 1014.6
20260507174418 55 196 1.0 4.0 0.00 0.00 0.00 67 1014.6
20260507173917 55 169 1.0 7.0 0.00 0.00 0.00 67 1014.6
20260507173416 56 120 1.0 7.0 0.00 0.00 0.00 67 1014.5
20260507173159 56 98 1.0 7.0 0.00 0.00 0.00 67 1014.5
20260507172415 56 61 1.0 7.0 0.00 0.00 0.00 66 1014.5
20260507171917 56 62 2.0 7.0 0.00 0.00 0.00 66 1014.5
20260507171658 56 148 1.0 6.0 0.00 0.00 0.00 65 1014.5
20260507170916 56 232 1.0 6.0 0.00 0.00 0.00 65 1014.5
20260507170414 57 69 0.0 3.0 0.00 0.00 0.00 65 1014.5
20260507165915 57 219 1.0 4.0 0.00 0.00 0.00 64 1014.4
20260507165413 57 55 1.0 5.0 0.00 0.00 0.00 64 1014.5
20260507164910 57 200 1.0 5.0 0.00 0.00 0.00 63 1014.5
20260507164409 57 115 1.0 4.0 0.00 0.00 0.00 63 1014.4
20260507163909 57 99 1.0 4.0 0.00 0.00 0.00 63 1014.5
20260507163410 57 298 1.0 3.0 0.00 0.00 0.00 64 1014.5
20260507163152 58 240 1.0 4.0 0.00 0.00 0.00 63 1014.5
20260507162411 58 195 1.0 4.0 0.00 0.00 0.00 61 1014.5
20260507161910 58 146 1.0 8.0 0.00 0.00 0.00 61 1014.4
20260507161412 58 221 1.0 8.0 0.00 0.00 0.00 61 1014.4
20260507161155 58 90 0.0 3.0 0.00 0.00 0.00 61 1014.5
20260507160410 58 175 1.0 2.0 0.00 0.00 0.00 61 1014.5
20260507155905 58 41 1.0 4.0 0.00 0.00 0.00 61 1014.6
20260507155403 58 83 1.0 4.0 0.00 0.00 0.00 61 1014.6
20260507154902 58 188 1.0 4.0 0.00 0.00 0.00 62 1014.6
20260507154404 59 196 1.0 4.0 0.00 0.00 0.00 61 1014.6
20260507153859 59 21 1.0 4.0 0.00 0.00 0.00 61 1014.5
20260507153635 59 111 1.0 3.0 0.00 0.00 0.00 61 1014.6
20260507153129 59 333 1.0 3.0 0.00 0.00 0.00 62 1014.6
20260507152341 59 351 1.0 4.0 0.00 0.00 0.00 61 1014.7
20260507151834 60 183 1.0 4.0 0.00 0.00 0.00 61 1014.7
20260507151338 60 132 1.0 4.0 0.00 0.00 0.00 62 1014.7
20260507150835 59 76 1.0 4.0 0.00 0.00 0.00 65 1014.7
20260507150616 58 53 1.0 4.0 0.00 0.00 0.00 65 1014.7
20260507145835 58 41 1.0 6.0 0.00 0.00 0.00 66 1014.7
20260507145335 58 292 1.0 6.0 0.00 0.00 0.00 66 1014.7
20260507144834 58 304 1.0 4.0 0.00 0.00 0.00 66 1014.7
20260507144334 58 45 1.0 4.0 0.00 0.00 0.00 67 1014.7
20260507143834 57 108 1.0 4.0 0.00 0.00 0.00 68 1014.7
20260507143333 57 98 1.0 4.0 0.00 0.00 0.00 67 1014.8
20260507142831 57 120 1.0 4.0 0.00 0.00 0.00 69 1014.8
20260507142331 56 146 1.0 4.0 0.00 0.00 0.00 69 1014.8
20260507142109 56 349 1.0 4.0 0.00 0.00 0.00 69 1014.9
20260507141331 56 125 1.0 4.0 0.00 0.00 0.00 68 1014.9
20260507141119 56 105 1.0 4.0 0.00 0.00 0.00 68 1015.0
20260507140333 56 38 0.0 4.0 0.00 0.00 0.00 67 1015.0
20260507135834 56 142 0.0 3.0 0.00 0.00 0.00 68 1015.0
20260507135354 56 282 0.0 1.0 0.00 0.00 0.00 67 1015.0
20260507135346 56 19 0.0 3.0 0.00 0.00 0.00 67 1015.0
20260507134333 56 282 0.0 1.0 0.00 0.00 0.00 67 1015.0
20260507133832 56 282 0.0 2.0 0.00 0.00 0.00 67 1015.0
20260507133334 56 282 0.0 2.0 0.00 0.00 0.00 67 1015.0
20260507132831 56 282 0.0 1.0 0.00 0.00 0.00 68 1015.1
20260507132334 56 282 0.0 1.0 0.00 0.00 0.00 68 1015.1
20260507132114 56 282 0.0 1.0 0.00 0.00 0.00 67 1015.1
20260507131613 56 282 0.0 1.0 0.00 0.00 0.00 67 1015.1
20260507130832 56 282 0.0 1.0 0.00 0.00 0.00 67 1015.1
20260507130611 56 282 0.0 2.0 0.00 0.00 0.00 68 1015.1
20260507130110 56 282 0.0 2.0 0.00 0.00 0.00 68 1015.1
20260507125332 56 203 0.0 1.0 0.00 0.00 0.00 67 1015.1
20260507124833 56 200 0.0 2.0 0.00 0.00 0.00 67 1015.2
20260507124333 56 201 0.0 2.0 0.00 0.00 0.00 67 1015.2
20260507123833 57 201 0.0 2.0 0.00 0.00 0.00 67 1015.3
20260507123332 57 201 0.0 2.0 0.00 0.00 0.00 67 1015.2
20260507123111 57 201 0.0 2.0 0.00 0.00 0.00 64 1015.3
20260507122325 56 94 0.0 2.0 0.00 0.00 0.00 65 1015.2
20260507121825 56 298 1.0 2.0 0.00 0.00 0.00 65 1015.3
20260507121606 56 298 1.0 3.0 0.00 0.00 0.00 65 1015.3
20260507120823 56 188 1.0 5.0 0.00 0.00 0.00 64 1015.4
20260507120326 56 143 1.0 5.0 0.00 0.00 0.00 65 1015.4
20260507115821 56 244 1.0 3.0 0.00 0.00 0.00 65 1015.4
20260507115322 55 190 1.0 5.0 0.00 0.00 0.00 67 1015.4
20260507114821 55 142 1.0 5.0 0.00 0.00 0.00 66 1015.4
20260507114321 55 136 1.0 3.0 0.00 0.00 0.00 66 1015.4
20260507113817 55 188 1.0 3.0 0.00 0.00 0.00 67 1015.4
20260507113556 55 125 0.0 3.0 0.00 0.00 0.00 67 1015.3
20260507112838 55 219 1.0 4.0 0.00 0.00 0.00 67 1015.4
20260507112830 55 121 1.0 4.0 0.00 0.00 0.00 66 1015.4
20260507111818 55 33 0.0 3.0 0.00 0.00 0.00 67 1015.4
20260507111318 55 5 0.0 1.0 0.00 0.00 0.00 68 1015.4
20260507111053 55 213 0.0 3.0 0.00 0.00 0.00 67 1015.4
20260507110553 55 213 1.0 5.0 0.00 0.00 0.00 65 1015.5
20260507105810 56 59 1.0 5.0 0.00 0.00 0.00 65 1015.5
20260507105311 56 79 0.0 3.0 0.00 0.00 0.00 66 1015.5
20260507104808 56 119 0.0 2.0 0.00 0.00 0.00 67 1015.5
20260507104310 56 121 1.0 3.0 0.00 0.00 0.00 66 1015.6
20260507103810 56 136 1.0 3.0 0.00 0.00 0.00 66 1015.5
20260507103309 56 56 0.0 2.0 0.00 0.00 0.00 67 1015.5
20260507102810 56 53 0.0 1.0 0.00 0.00 0.00 66 1015.5
20260507102307 56 54 1.0 6.0 0.00 0.00 0.00 64 1015.6
20260507101804 57 54 1.0 6.0 0.00 0.00 0.00 63 1015.6
20260507101306 57 267 0.0 4.0 0.00 0.00 0.00 65 1015.5
20260507100805 57 190 1.0 2.0 0.00 0.00 0.00 64 1015.5
20260507100305 57 197 1.0 5.0 0.00 0.00 0.00 67 1015.5
20260507095805 57 76 1.0 5.0 0.00 0.00 0.00 68 1015.6
20260507095541 57 134 1.0 6.0 0.00 0.00 0.00 68 1015.6
20260507094804 57 92 1.0 6.0 0.00 0.00 0.00 67 1015.6
20260507094304 57 65 1.0 3.0 0.00 0.00 0.00 67 1015.6
20260507093804 57 20 1.0 4.0 0.00 0.00 0.00 66 1015.6
20260507093302 57 165 1.0 4.0 0.00 0.00 0.00 67 1015.6
20260507092805 57 99 1.0 5.0 0.00 0.00 0.00 67 1015.6
20260507092306 57 191 2.0 5.0 0.00 0.00 0.00 66 1015.5
20260507091802 57 103 1.0 5.0 0.00 0.00 0.00 65 1015.7
20260507091304 57 89 0.0 4.0 0.00 0.00 0.00 69 1015.6
20260507090804 56 173 1.0 3.0 0.00 0.00 0.00 69 1015.6
20260507090302 56 111 1.0 3.0 0.00 0.00 0.00 69 1015.6
20260507085803 56 133 1.0 5.0 0.00 0.00 0.00 69 1015.6
20260507085306 56 199 1.0 5.0 0.00 0.00 0.00 69 1015.6
20260507085047 56 105 1.0 4.0 0.00 0.00 0.00 69 1015.6
20260507084302 55 205 1.0 3.0 0.00 0.00 0.00 71 1015.6
20260507083802 55 71 1.0 3.0 0.00 0.00 0.00 71 1015.5
20260507083304 55 214 1.0 3.0 0.00 0.00 0.00 72 1015.6
20260507082803 54 198 1.0 4.0 0.00 0.00 0.00 73 1015.6
20260507082306 54 157 1.0 6.0 0.00 0.00 0.00 73 1015.7
20260507081802 54 213 0.0 6.0 0.00 0.00 0.00 74 1015.6
20260507081302 54 139 0.0 3.0 0.00 0.00 0.00 74 1015.6
20260507080802 53 157 1.0 5.0 0.00 0.00 0.00 75 1015.6
20260507080304 53 115 1.0 5.0 0.00 0.00 0.00 75 1015.6
20260507075803 53 118 1.0 5.0 0.00 0.00 0.00 77 1015.6
20260507075544 53 56 1.0 5.0 0.00 0.00 0.00 77 1015.6
20260507074802 52 92 1.0 4.0 0.00 0.00 0.00 78 1015.6
20260507074303 52 91 1.0 3.0 0.00 0.00 0.00 79 1015.6
20260507073804 51 33 1.0 3.0 0.00 0.00 0.00 79 1015.5
20260507073546 51 50 0.0 3.0 0.00 0.00 0.00 79 1015.5
20260507072803 51 84 0.0 4.0 0.00 0.00 0.00 79 1015.5
20260507072306 51 96 0.0 4.0 0.00 0.00 0.00 79 1015.5
20260507071803 51 69 0.0 3.0 0.00 0.00 0.00 80 1015.5
20260507071543 51 72 0.0 3.0 0.00 0.00 0.00 79 1015.5
20260507070804 51 130 0.0 2.0 0.00 0.00 0.00 80 1015.4
20260507070304 51 130 1.0 5.0 0.00 0.00 0.00 80 1015.3
20260507065804 51 289 0.0 5.0 0.00 0.00 0.00 81 1015.4
20260507065305 51 345 0.0 3.0 0.00 0.00 0.00 81 1015.4
20260507064803 51 69 1.0 3.0 0.00 0.00 0.00 82 1015.4
20260507064330 50 119 0.0 2.0 0.00 0.00 0.00 85 1015.4
20260507064321 50 36 0.0 2.0 0.00 0.00 0.00 84 1015.4
20260507063303 49 115 1.0 3.0 0.00 0.00 0.00 86 1015.3
20260507063044 49 71 1.0 3.0 0.00 0.00 0.00 88 1015.3
20260507062305 48 80 0.0 3.0 0.00 0.00 0.00 90 1015.3
20260507061803 47 97 0.0 2.0 0.00 0.00 0.00 91 1015.2
20260507061545 47 31 0.0 2.0 0.00 0.00 0.00 93 1015.3
20260507060802 46 31 0.0 2.0 0.00 0.00 0.00 93 1015.2
20260507060303 45 31 0.0 1.0 0.00 0.00 0.00 93 1015.2
20260507055802 45 319 0.0 0.0 0.00 0.00 0.00 93 1015.1
20260507055306 45 319 0.0 0.0 0.00 0.00 0.00 93 1015.1
20260507054804 44 319 0.0 0.0 0.00 0.00 0.00 92 1015.1
20260507054304 44 319 0.0 0.0 0.00 0.00 0.00 92 1015.1
20260507053804 44 319 0.0 0.0 0.00 0.00 0.00 92 1015.0
20260507053325 44 319 0.0 0.0 0.00 0.00 0.00 91 1015.0
20260507053316 44 319 0.0 0.0 0.00 0.00 0.00 92 1015.0
20260507052306 44 319 0.0 0.0 0.00 0.00 0.00 91 1015.0
20260507051803 44 319 0.0 0.0 0.00 0.00 0.00 92 1014.9
20260507051302 44 319 0.0 0.0 0.00 0.00 0.00 91 1015.0
20260507051037 44 319 0.0 0.0 0.00 0.00 0.00 91 1014.9
20260507050304 45 319 0.0 0.0 0.00 0.00 0.00 91 1014.8
20260507045802 45 319 0.0 0.0 0.00 0.00 0.00 91 1014.8
20260507045305 45 319 0.0 0.0 0.00 0.00 0.00 91 1014.8
20260507044804 45 319 0.0 0.0 0.00 0.00 0.00 92 1014.8
20260507044302 45 319 0.0 0.0 0.00 0.00 0.00 92 1014.8
20260507043804 45 319 0.0 0.0 0.00 0.00 0.00 92 1014.8
20260507043304 45 315 0.0 0.0 0.00 0.00 0.00 92 1014.8
20260507042803 45 315 0.0 0.0 0.00 0.00 0.00 92 1014.8
20260507042306 45 315 0.0 0.0 0.00 0.00 0.00 91 1014.8
20260507041802 45 315 0.0 0.0 0.00 0.00 0.00 91 1014.8
20260507041302 45 315 0.0 0.0 0.00 0.00 0.00 90 1014.7
20260507040803 45 315 0.0 0.0 0.00 0.00 0.00 90 1014.7
20260507040302 45 315 0.0 0.0 0.00 0.00 0.00 90 1014.7
20260507040043 45 315 0.0 0.0 0.00 0.00 0.00 90 1014.7
20260507035302 46 315 0.0 0.0 0.00 0.00 0.00 90 1014.7
20260507034802 46 315 0.0 0.0 0.00 0.00 0.00 90 1014.6
20260507034305 46 315 0.0 0.0 0.00 0.00 0.00 90 1014.7
20260507033803 46 315 0.0 0.0 0.00 0.00 0.00 90 1014.6
20260507033302 46 315 0.0 0.0 0.00 0.00 0.00 90 1014.6
20260507032803 46 315 0.0 0.0 0.00 0.00 0.00 90 1014.6
20260507032306 46 315 0.0 0.0 0.00 0.00 0.00 90 1014.6
20260507031803 46 315 0.0 0.0 0.00 0.00 0.00 90 1014.5
20260507031302 46 315 0.0 0.0 0.00 0.00 0.00 90 1014.6
20260507031042 46 315 0.0 0.0 0.00 0.00 0.00 90 1014.6
20260507030541 46 315 0.0 0.0 0.00 0.00 0.00 90 1014.6
20260507025805 46 315 0.0 0.0 0.00 0.00 0.00 90 1014.6
20260507025306 46 315 0.0 0.0 0.00 0.00 0.00 90 1014.6
20260507024803 47 315 0.0 1.0 0.00 0.00 0.00 90 1014.5
20260507024540 47 315 0.0 1.0 0.00 0.00 0.00 90 1014.5
20260507023803 47 315 0.0 0.0 0.00 0.00 0.00 90 1014.5
20260507023304 47 315 0.0 0.0 0.00 0.00 0.00 90 1014.6
20260507022804 47 315 0.0 0.0 0.00 0.00 0.00 90 1014.6
20260507022306 47 315 0.0 2.0 0.00 0.00 0.00 90 1014.5
20260507022039 47 315 0.0 2.0 0.00 0.00 0.00 90 1014.5
20260507021304 47 310 0.0 1.0 0.00 0.00 0.00 90 1014.4
20260507021039 47 298 0.0 0.0 0.00 0.00 0.00 90 1014.4
20260507020303 47 298 0.0 0.0 0.00 0.00 0.00 90 1014.3
20260507015803 47 298 0.0 0.0 0.00 0.00 0.00 90 1014.4
20260507015305 47 298 0.0 0.0 0.00 0.00 0.00 90 1014.4
20260507014804 47 298 0.0 1.0 0.00 0.00 0.00 90 1014.4